Time,TemperatureF,DewpointF,PressureIn,WindDirection,WindDirectionDegrees,WindSpeedMPH,WindSpeedGustMPH,Humidity,HourlyPrecipIn,Conditions,Clouds,dailyrainin,SolarRadiationWatts/m^2,SoftwareType,DateUTC
2013-01-16 00:00:00,35.1,24.1,30.24,NNE,20,4.0,4.0,64,0.00,,,0.00,0,HR-IXPWINDi_r2_v1.2.,2013-01-16 05:00:00,
2013-01-16 00:05:00,35.1,24.1,30.24,NNE,30,2.0,5.0,64,0.00,,,0.00,0,HR-IXPWINDi_r2_v1.2.,2013-01-16 05:05:00,
2013-01-16 00:10:00,35.2,24.2,30.24,NNE,28,3.0,6.0,64,0.00,,,0.00,0,HR-IXPWINDi_r2_v1.2.,2013-01-16 05:10:00,
2013-01-16 00:15:00,35.2,24.2,30.23,North,355,5.0,6.0,64,0.00,,,0.00,0,HR-IXPWINDi_r2_v1.2.,2013-01-16 05:15:00,
2013-01-16 00:21:00,35.2,24.2,30.24,NNE,17,5.0,6.0,64,0.00,,,0.00,0,HR-IXPWINDi_r2_v1.2.,2013-01-16 05:21:00,
2013-01-16 00:26:00,35.2,24.2,30.23,NNE,13,6.0,8.0,64,0.00,,,0.00,0,HR-IXPWINDi_r2_v1.2.,2013-01-16 05:26:00,
2013-01-16 00:31:00,35.3,24.3,30.24,NNE,17,3.0,8.0,64,0.00,,,0.00,0,HR-IXPWINDi_r2_v1.2.,2013-01-16 05:31:00,
2013-01-16 00:36:00,35.3,24.0,30.24,NNE,29,5.0,7.0,63,0.00,,,0.00,0,HR-IXPWINDi_r2_v1.2.,2013-01-16 05:36:00,
2013-01-16 00:41:00,35.3,24.0,30.24,North,5,5.0,7.0,63,0.00,,,0.00,0,HR-IXPWINDi_r2_v1.2.,2013-01-16 05:41:00,
2013-01-16 00:46:00,35.4,24.1,30.24,North,9,4.0,7.0,63,0.00,,,0.00,0,HR-IXPWINDi_r2_v1.2.,2013-01-16 05:46:00,
2013-01-16 00:52:00,35.5,24.1,30.24,NNE,22,3.0,7.0,63,0.00,,,0.00,0,HR-IXPWINDi_r2_v1.2.,2013-01-16 05:52:00,
2013-01-16 00:57:00,35.4,24.1,30.24,North,360,4.0,7.0,63,0.00,,,0.00,0,HR-IXPWINDi_r2_v1.2.,2013-01-16 05:57:00,
2013-01-16 01:02:00,35.4,24.1,30.24,NNE,18,3.0,7.0,63,0.00,,,0.00,0,HR-IXPWINDi_r2_v1.2.,2013-01-16 06:02:00,
2013-01-16 01:07:00,35.4,24.4,30.24,NNE,18,6.0,7.0,64,0.00,,,0.00,0,HR-IXPWINDi_r2_v1.2.,2013-01-16 06:07:00,
2013-01-16 01:13:00,35.4,24.4,30.24,NNE,28,5.0,7.0,64,0.00,,,0.00,0,HR-IXPWINDi_r2_v1.2.,2013-01-16 06:13:00,
2013-01-16 01:18:00,35.4,24.4,30.24,NNE,31,3.0,7.0,64,0.00,,,0.00,0,HR-IXPWINDi_r2_v1.2.,2013-01-16 06:18:00,
2013-01-16 01:23:00,35.4,24.4,30.24,NE,35,2.0,7.0,64,0.00,,,0.00,0,HR-IXPWINDi_r2_v1.2.,2013-01-16 06:23:00,
2013-01-16 01:28:00,35.4,24.4,30.23,NNE,33,3.0,6.0,64,0.00,,,0.00,0,HR-IXPWINDi_r2_v1.2.,2013-01-16 06:28:00,
2013-01-16 01:33:00,35.4,24.4,30.23,NE,34,4.0,6.0,64,0.00,,,0.00,0,HR-IXPWINDi_r2_v1.2.,2013-01-16 06:33:00,
2013-01-16 01:39:00,35.3,24.3,30.23,NNE,19,4.0,6.0,64,0.00,,,0.00,0,HR-IXPWINDi_r2_v1.2.,2013-01-16 06:39:00,
2013-01-16 01:44:00,35.3,24.3,30.23,NNE,20,3.0,6.0,64,0.00,,,0.00,0,HR-IXPWINDi_r2_v1.2.,2013-01-16 06:44:00,
2013-01-16 01:49:00,35.2,24.6,30.23,NNE,16,5.0,6.0,65,0.00,,,0.00,0,HR-IXPWINDi_r2_v1.2.,2013-01-16 06:49:00,
2013-01-16 01:54:00,35.2,24.6,30.22,NNE,22,5.0,6.0,65,0.00,,,0.00,0,HR-IXPWINDi_r2_v1.2.,2013-01-16 06:54:00,
2013-01-16 02:00:00,35.3,24.7,30.22,NNE,32,5.0,6.0,65,0.00,,,0.00,0,HR-IXPWINDi_r2_v1.2.,2013-01-16 07:00:00,
2013-01-16 02:05:00,35.3,25.1,30.22,NNE,19,5.0,6.0,66,0.00,,,0.00,0,HR-IXPWINDi_r2_v1.2.,2013-01-16 07:05:00,
2013-01-16 02:10:00,35.3,24.7,30.23,NNE,15,5.0,7.0,65,0.00,,,0.00,0,HR-IXPWINDi_r2_v1.2.,2013-01-16 07:10:00,
2013-01-16 02:15:00,35.3,24.7,30.22,NNE,20,4.0,7.0,65,0.00,,,0.00,0,HR-IXPWINDi_r2_v1.2.,2013-01-16 07:15:00,
2013-01-16 02:20:00,35.4,25.2,30.22,NNE,31,3.0,6.0,66,0.00,,,0.00,0,HR-IXPWINDi_r2_v1.2.,2013-01-16 07:20:00,
2013-01-16 02:26:00,35.5,24.9,30.22,NNE,26,3.0,6.0,65,0.00,,,0.00,0,HR-IXPWINDi_r2_v1.2.,2013-01-16 07:26:00,
2013-01-16 02:31:00,35.5,24.9,30.22,NNE,13,3.0,6.0,65,0.00,,,0.00,0,HR-IXPWINDi_r2_v1.2.,2013-01-16 07:31:00,
2013-01-16 02:36:00,35.5,24.9,30.22,NNE,15,4.0,5.0,65,0.00,,,0.00,0,HR-IXPWINDi_r2_v1.2.,2013-01-16 07:36:00,
2013-01-16 02:41:00,35.5,24.9,30.22,NNE,32,1.0,5.0,65,0.00,,,0.00,0,HR-IXPWINDi_r2_v1.2.,2013-01-16 07:41:00,
2013-01-16 02:47:00,35.6,25.0,30.22,NNE,26,3.0,5.0,65,0.00,,,0.00,0,HR-IXPWINDi_r2_v1.2.,2013-01-16 07:47:00,
2013-01-16 02:52:00,35.6,25.0,30.22,NNE,15,2.0,4.0,65,0.00,,,0.00,0,HR-IXPWINDi_r2_v1.2.,2013-01-16 07:52:00,
2013-01-16 02:57:00,35.6,25.0,30.21,NNE,25,4.0,5.0,65,0.00,,,0.00,0,HR-IXPWINDi_r2_v1.2.,2013-01-16 07:57:00,
2013-01-16 03:02:00,35.5,24.9,30.21,NNE,27,4.0,5.0,65,0.00,,,0.00,0,HR-IXPWINDi_r2_v1.2.,2013-01-16 08:02:00,
2013-01-16 03:07:00,35.5,24.9,30.22,North,5,4.0,5.0,65,0.00,,,0.00,0,HR-IXPWINDi_r2_v1.2.,2013-01-16 08:07:00,
2013-01-16 03:12:00,35.4,24.8,30.22,NNE,17,5.0,6.0,65,0.00,,,0.00,0,HR-IXPWINDi_r2_v1.2.,2013-01-16 08:12:00,
2013-01-16 03:18:00,35.3,24.7,30.22,North,351,4.0,7.0,65,0.00,,,0.00,0,HR-IXPWINDi_r2_v1.2.,2013-01-16 08:18:00,
2013-01-16 03:23:00,35.2,24.6,30.20,NNE,30,5.0,7.0,65,0.00,,,0.00,0,HR-IXPWINDi_r2_v1.2.,2013-01-16 08:23:00,
2013-01-16 03:28:00,35.1,24.5,30.20,NNE,25,6.0,8.0,65,0.00,,,0.00,0,HR-IXPWINDi_r2_v1.2.,2013-01-16 08:28:00,
2013-01-16 03:33:00,35.1,24.5,30.19,North,5,7.0,9.0,65,0.00,,,0.00,0,HR-IXPWINDi_r2_v1.2.,2013-01-16 08:33:00,
2013-01-16 03:38:00,35.1,24.5,30.19,NNE,15,5.0,9.0,65,0.00,,,0.00,0,HR-IXPWINDi_r2_v1.2.,2013-01-16 08:38:00,
2013-01-16 03:43:00,35.1,24.5,30.18,NNE,15,5.0,8.0,65,0.00,,,0.00,0,HR-IXPWINDi_r2_v1.2.,2013-01-16 08:43:00,
2013-01-16 03:48:00,35.1,24.5,30.18,NE,34,5.0,8.0,65,0.00,,,0.00,0,HR-IXPWINDi_r2_v1.2.,2013-01-16 08:48:00,
2013-01-16 03:54:00,35.1,24.5,30.17,NNE,23,5.0,8.0,65,0.00,,,0.00,0,HR-IXPWINDi_r2_v1.2.,2013-01-16 08:54:00,
2013-01-16 03:59:00,35.1,24.5,30.16,NNE,21,5.0,8.0,65,0.00,,,0.00,0,HR-IXPWINDi_r2_v1.2.,2013-01-16 08:59:00,
2013-01-16 04:04:00,35.0,24.4,30.16,NNE,19,4.0,8.0,65,0.00,,,0.00,0,HR-IXPWINDi_r2_v1.2.,2013-01-16 09:04:00,
2013-01-16 04:09:00,35.0,24.4,30.16,NNE,22,3.0,7.0,65,0.00,,,0.00,0,HR-IXPWINDi_r2_v1.2.,2013-01-16 09:09:00,
2013-01-16 04:14:00,35.1,24.9,30.16,NNE,22,5.0,7.0,66,0.00,,,0.00,0,HR-IXPWINDi_r2_v1.2.,2013-01-16 09:14:00,
2013-01-16 04:20:00,35.1,24.9,30.16,NNE,25,3.0,6.0,66,0.00,,,0.00,0,HR-IXPWINDi_r2_v1.2.,2013-01-16 09:20:00,
2013-01-16 04:25:00,35.0,25.1,30.16,NNE,32,5.0,7.0,67,0.00,,,0.00,0,HR-IXPWINDi_r2_v1.2.,2013-01-16 09:25:00,
2013-01-16 04:30:00,35.0,25.8,30.16,NNE,28,3.0,7.0,69,0.00,,,0.00,0,HR-IXPWINDi_r2_v1.2.,2013-01-16 09:30:00,
2013-01-16 04:35:00,34.7,25.9,30.16,NNE,32,1.0,6.0,70,0.00,,,0.00,0,HR-IXPWINDi_r2_v1.2.,2013-01-16 09:35:00,
2013-01-16 04:40:00,34.5,26.1,30.16,NNE,21,6.0,6.0,71,0.00,,,0.00,0,HR-IXPWINDi_r2_v1.2.,2013-01-16 09:40:00,
2013-01-16 04:45:00,34.1,26.7,30.16,NNE,29,1.0,6.0,74,0.00,,,0.00,0,HR-IXPWINDi_r2_v1.2.,2013-01-16 09:45:00,
2013-01-16 04:50:00,33.6,26.8,30.16,NNE,30,4.0,6.0,76,0.00,,,0.00,0,HR-IXPWINDi_r2_v1.2.,2013-01-16 09:50:00,
2013-01-16 04:56:00,33.2,27.4,30.16,NNE,29,1.0,5.0,79,0.00,,,0.00,0,HR-IXPWINDi_r2_v1.2.,2013-01-16 09:56:00,
2013-01-16 05:01:00,32.9,27.7,30.15,NNE,28,3.0,5.0,81,0.00,,,0.00,0,HR-IXPWINDi_r2_v1.2.,2013-01-16 10:01:00,
2013-01-16 05:06:00,32.7,28.1,30.15,NNE,28,2.0,3.0,83,0.00,,,0.00,0,HR-IXPWINDi_r2_v1.2.,2013-01-16 10:06:00,
2013-01-16 05:11:00,32.5,28.5,30.14,NNE,27,0.0,3.0,85,0.00,,,0.00,0,HR-IXPWINDi_r2_v1.2.,2013-01-16 10:11:00,
2013-01-16 05:16:00,32.3,28.6,30.15,NNW,335,2.0,3.0,86,0.00,,,0.00,0,HR-IXPWINDi_r2_v1.2.,2013-01-16 10:16:00,
2013-01-16 05:22:00,32.1,28.6,30.15,NNW,342,1.0,3.0,87,0.00,,,0.00,0,HR-IXPWINDi_r2_v1.2.,2013-01-16 10:22:00,
2013-01-16 05:27:00,32.0,28.8,30.15,NNW,340,2.0,4.0,88,0.00,,,0.00,0,HR-IXPWINDi_r2_v1.2.,2013-01-16 10:27:00,
2013-01-16 05:32:00,31.9,28.7,30.14,North,9,1.0,4.0,88,0.00,,,0.00,0,HR-IXPWINDi_r2_v1.2.,2013-01-16 10:32:00,
2013-01-16 05:37:00,31.7,28.8,30.14,NNW,348,2.0,3.0,89,0.00,,,0.00,0,HR-IXPWINDi_r2_v1.2.,2013-01-16 10:37:00,
2013-01-16 05:42:00,31.7,28.8,30.14,North,9,2.0,3.0,89,0.00,,,0.00,0,HR-IXPWINDi_r2_v1.2.,2013-01-16 10:42:00,
2013-01-16 05:48:00,31.7,29.1,30.14,North,355,1.0,3.0,90,0.00,,,0.00,0,HR-IXPWINDi_r2_v1.2.,2013-01-16 10:48:00,
2013-01-16 05:53:00,31.7,29.1,30.14,North,360,2.0,3.0,90,0.00,,,0.00,0,HR-IXPWINDi_r2_v1.2.,2013-01-16 10:53:00,
2013-01-16 05:58:00,31.6,29.0,30.14,North,360,3.0,3.0,90,0.00,,,0.00,0,HR-IXPWINDi_r2_v1.2.,2013-01-16 10:58:00,
2013-01-16 06:03:00,31.6,29.0,30.14,North,360,3.0,3.0,90,0.00,,,0.00,0,HR-IXPWINDi_r2_v1.2.,2013-01-16 11:03:00,
2013-01-16 06:08:00,-999.0,99.9,30.13,North,-999,-999.0,-999.0,-999,99.99,,,0.00,,HR-IXPWINDi_r2_v1.2.,2013-01-16 11:08:00,
2013-01-16 06:14:00,-999.0,99.9,30.13,North,-999,-999.0,-999.0,-999,99.99,,,0.00,,HR-IXPWINDi_r2_v1.2.,2013-01-16 11:14:00,
2013-01-16 06:19:00,-999.0,99.9,30.13,North,-999,-999.0,-999.0,-999,99.99,,,0.00,,HR-IXPWINDi_r2_v1.2.,2013-01-16 11:19:00,
2013-01-16 06:24:00,-999.0,99.9,30.13,North,-999,-999.0,-999.0,-999,99.99,,,0.00,,HR-IXPWINDi_r2_v1.2.,2013-01-16 11:24:00,
2013-01-16 06:29:00,-999.0,99.9,30.12,North,-999,-999.0,-999.0,-999,99.99,,,0.00,,HR-IXPWINDi_r2_v1.2.,2013-01-16 11:29:00,
2013-01-16 06:34:00,-999.0,99.9,30.12,North,-999,-999.0,-999.0,-999,99.99,,,0.00,,HR-IXPWINDi_r2_v1.2.,2013-01-16 11:34:00,
2013-01-16 06:40:00,-999.0,99.9,30.11,North,-999,-999.0,-999.0,-999,99.99,,,0.00,,HR-IXPWINDi_r2_v1.2.,2013-01-16 11:40:00,
2013-01-16 06:45:00,-999.0,99.9,30.11,North,-999,-999.0,-999.0,-999,99.99,,,0.00,,HR-IXPWINDi_r2_v1.2.,2013-01-16 11:45:00,
2013-01-16 06:50:00,-999.0,99.9,30.11,North,-999,-999.0,-999.0,-999,99.99,,,0.00,,HR-IXPWINDi_r2_v1.2.,2013-01-16 11:50:00,
2013-01-16 06:55:00,-999.0,99.9,30.10,North,-999,-999.0,-999.0,-999,99.99,,,0.00,,HR-IXPWINDi_r2_v1.2.,2013-01-16 11:55:00,
2013-01-16 07:01:00,-999.0,99.9,30.10,North,-999,-999.0,-999.0,-999,99.99,,,0.00,,HR-IXPWINDi_r2_v1.2.,2013-01-16 12:01:00,
2013-01-16 07:06:00,-999.0,99.9,30.11,North,-999,-999.0,-999.0,-999,99.99,,,0.00,,HR-IXPWINDi_r2_v1.2.,2013-01-16 12:06:00,
2013-01-16 07:11:00,-999.0,99.9,30.11,North,-999,-999.0,-999.0,-999,99.99,,,0.00,,HR-IXPWINDi_r2_v1.2.,2013-01-16 12:11:00,
2013-01-16 07:16:00,-999.0,99.9,30.12,North,-999,-999.0,-999.0,-999,99.99,,,0.00,,HR-IXPWINDi_r2_v1.2.,2013-01-16 12:16:00,
2013-01-16 07:22:00,-999.0,99.9,30.11,North,-999,-999.0,-999.0,-999,99.99,,,0.00,,HR-IXPWINDi_r2_v1.2.,2013-01-16 12:22:00,
2013-01-16 07:27:00,-999.0,99.9,30.11,North,-999,-999.0,-999.0,-999,99.99,,,0.00,,HR-IXPWINDi_r2_v1.2.,2013-01-16 12:27:00,
2013-01-16 07:32:00,-999.0,99.9,30.11,North,-999,-999.0,-999.0,-999,99.99,,,0.00,,HR-IXPWINDi_r2_v1.2.,2013-01-16 12:32:00,
2013-01-16 07:37:00,-999.0,99.9,30.11,North,-999,-999.0,-999.0,-999,99.99,,,0.00,,HR-IXPWINDi_r2_v1.2.,2013-01-16 12:37:00,
2013-01-16 07:42:00,-999.0,99.9,30.10,North,-999,-999.0,-999.0,-999,99.99,,,0.00,,HR-IXPWINDi_r2_v1.2.,2013-01-16 12:42:00,
2013-01-16 07:48:00,-999.0,99.9,30.10,North,-999,-999.0,-999.0,-999,99.99,,,0.00,,HR-IXPWINDi_r2_v1.2.,2013-01-16 12:48:00,
2013-01-16 07:53:00,-999.0,99.9,30.10,North,-999,-999.0,-999.0,-999,99.99,,,0.00,,HR-IXPWINDi_r2_v1.2.,2013-01-16 12:53:00,
2013-01-16 07:58:00,-999.0,99.9,30.10,North,-999,-999.0,-999.0,-999,99.99,,,0.00,,HR-IXPWINDi_r2_v1.2.,2013-01-16 12:58:00,
2013-01-16 08:03:00,-999.0,99.9,30.09,North,-999,-999.0,-999.0,-999,99.99,,,0.00,,HR-IXPWINDi_r2_v1.2.,2013-01-16 13:03:00,
2013-01-16 08:08:00,-999.0,99.9,30.09,North,-999,-999.0,-999.0,-999,99.99,,,0.00,,HR-IXPWINDi_r2_v1.2.,2013-01-16 13:08:00,
2013-01-16 08:13:00,-999.0,99.9,30.09,North,-999,-999.0,-999.0,-999,99.99,,,0.00,,HR-IXPWINDi_r2_v1.2.,2013-01-16 13:13:00,
2013-01-16 08:19:00,-999.0,99.9,30.09,North,-999,-999.0,-999.0,-999,99.99,,,0.00,,HR-IXPWINDi_r2_v1.2.,2013-01-16 13:19:00,
2013-01-16 08:24:00,-999.0,99.9,30.09,North,-999,-999.0,-999.0,-999,99.99,,,0.00,,HR-IXPWINDi_r2_v1.2.,2013-01-16 13:24:00,
2013-01-16 08:29:00,-999.0,99.9,30.09,North,-999,-999.0,-999.0,-999,99.99,,,0.00,,HR-IXPWINDi_r2_v1.2.,2013-01-16 13:29:00,
2013-01-16 08:34:00,-999.0,99.9,30.09,North,-999,-999.0,-999.0,-999,99.99,,,0.00,,HR-IXPWINDi_r2_v1.2.,2013-01-16 13:34:00,
2013-01-16 08:39:00,30.9,29.1,30.09,NE,38,1.0,255.0,93,0.00,,,0.00,0,HR-IXPWINDi_r2_v1.2.,2013-01-16 13:39:00,
2013-01-16 08:44:00,30.9,29.1,30.09,NNE,26,3.0,255.0,93,0.00,,,0.00,5,HR-IXPWINDi_r2_v1.2.,2013-01-16 13:44:00,
2013-01-16 08:50:00,30.9,29.1,30.08,NNE,15,2.0,6.0,93,0.00,,,0.00,5,HR-IXPWINDi_r2_v1.2.,2013-01-16 13:50:00,
2013-01-16 08:55:00,31.0,29.2,30.09,NE,40,2.0,5.0,93,0.00,,,0.00,5,HR-IXPWINDi_r2_v1.2.,2013-01-16 13:55:00,
2013-01-16 09:00:00,31.0,29.2,30.08,North,11,0.0,4.0,93,0.00,,,0.00,5,HR-IXPWINDi_r2_v1.2.,2013-01-16 14:00:00,
2013-01-16 09:05:00,31.2,29.6,30.08,NNE,30,1.0,4.0,94,0.00,,,0.00,7,HR-IXPWINDi_r2_v1.2.,2013-01-16 14:05:00,
2013-01-16 09:11:00,31.2,29.6,30.08,North,355,0.0,3.0,94,0.00,,,0.00,7,HR-IXPWINDi_r2_v1.2.,2013-01-16 14:11:00,
2013-01-16 09:16:00,31.2,29.6,30.08,North,9,0.0,3.0,94,0.00,,,0.00,9,HR-IXPWINDi_r2_v1.2.,2013-01-16 14:16:00,
2013-01-16 09:21:00,31.4,29.8,30.07,NNE,26,1.0,3.0,94,0.00,,,0.00,11,HR-IXPWINDi_r2_v1.2.,2013-01-16 14:21:00,
2013-01-16 09:26:00,31.3,29.7,30.07,NNE,23,3.0,4.0,94,0.00,,,0.00,12,HR-IXPWINDi_r2_v1.2.,2013-01-16 14:26:00,
2013-01-16 09:32:00,31.4,29.8,30.06,North,5,3.0,4.0,94,0.00,,,0.00,16,HR-IXPWINDi_r2_v1.2.,2013-01-16 14:32:00,
2013-01-16 09:37:00,31.4,29.8,30.05,North,9,2.0,4.0,94,0.00,,,0.00,18,HR-IXPWINDi_r2_v1.2.,2013-01-16 14:37:00,
2013-01-16 09:42:00,31.5,29.9,30.04,North,5,2.0,4.0,94,0.00,,,0.00,16,HR-IXPWINDi_r2_v1.2.,2013-01-16 14:42:00,
2013-01-16 09:47:00,31.6,30.0,30.04,NNE,32,2.0,5.0,94,0.00,,,0.00,16,HR-IXPWINDi_r2_v1.2.,2013-01-16 14:47:00,
2013-01-16 09:52:00,31.7,30.1,30.03,NNE,26,3.0,5.0,94,0.00,,,0.00,12,HR-IXPWINDi_r2_v1.2.,2013-01-16 14:52:00,
2013-01-16 09:58:00,31.8,30.2,30.03,NNE,24,5.0,6.0,94,0.00,,,0.00,11,HR-IXPWINDi_r2_v1.2.,2013-01-16 14:58:00,
2013-01-16 10:03:00,31.8,30.2,30.01,NNE,19,4.0,6.0,94,0.00,,,0.00,12,HR-IXPWINDi_r2_v1.2.,2013-01-16 15:03:00,
2013-01-16 10:08:00,32.0,30.4,30.01,NE,38,3.0,6.0,94,0.00,,,0.00,16,HR-IXPWINDi_r2_v1.2.,2013-01-16 15:08:00,
2013-01-16 10:13:00,32.2,30.6,30.00,NE,50,2.0,6.0,94,0.00,,,0.00,18,HR-IXPWINDi_r2_v1.2.,2013-01-16 15:13:00,
2013-01-16 10:18:00,32.5,30.9,30.00,NNE,27,2.0,5.0,94,0.00,,,0.00,16,HR-IXPWINDi_r2_v1.2.,2013-01-16 15:18:00,
2013-01-16 10:23:00,32.7,31.1,29.99,NNE,16,5.0,6.0,94,0.00,,,0.00,16,HR-IXPWINDi_r2_v1.2.,2013-01-16 15:23:00,
2013-01-16 10:29:00,32.7,31.1,29.99,NNE,21,3.0,6.0,94,0.00,,,0.00,12,HR-IXPWINDi_r2_v1.2.,2013-01-16 15:29:00,
2013-01-16 10:34:00,32.9,31.3,29.98,NNE,19,2.0,6.0,94,0.00,,,0.00,16,HR-IXPWINDi_r2_v1.2.,2013-01-16 15:34:00,
2013-01-16 10:39:00,33.0,31.4,29.97,North,10,4.0,6.0,94,0.00,,,0.00,18,HR-IXPWINDi_r2_v1.2.,2013-01-16 15:39:00,
2013-01-16 10:44:00,33.1,31.5,29.97,North,355,5.0,6.0,94,0.00,,,0.00,19,HR-IXPWINDi_r2_v1.2.,2013-01-16 15:44:00,
2013-01-16 10:49:00,33.1,31.5,29.97,NNE,14,5.0,7.0,94,0.00,,,0.00,28,HR-IXPWINDi_r2_v1.2.,2013-01-16 15:49:00,
2013-01-16 10:54:00,33.1,31.5,29.97,NNE,14,6.0,7.0,94,0.00,,,0.00,33,HR-IXPWINDi_r2_v1.2.,2013-01-16 15:54:00,
2013-01-16 11:00:00,33.2,31.6,29.97,NNE,26,5.0,7.0,94,0.00,,,0.00,54,HR-IXPWINDi_r2_v1.2.,2013-01-16 16:00:00,
2013-01-16 11:05:00,33.4,31.8,29.97,North,360,5.0,7.0,94,0.00,,,0.00,62,HR-IXPWINDi_r2_v1.2.,2013-01-16 16:05:00,
2013-01-16 11:10:00,33.6,32.0,29.97,NNW,348,5.0,7.0,94,0.00,,,0.00,56,HR-IXPWINDi_r2_v1.2.,2013-01-16 16:10:00,
2013-01-16 11:15:00,33.3,31.7,29.96,NNE,33,5.0,8.0,94,0.00,,,0.00,44,HR-IXPWINDi_r2_v1.2.,2013-01-16 16:15:00,
2013-01-16 11:20:00,33.2,31.6,29.96,NNW,338,6.0,9.0,94,0.00,,,0.00,46,HR-IXPWINDi_r2_v1.2.,2013-01-16 16:20:00,
2013-01-16 11:26:00,33.1,31.5,29.95,North,5,6.0,9.0,94,0.00,,,0.00,53,HR-IXPWINDi_r2_v1.2.,2013-01-16 16:26:00,
2013-01-16 11:31:00,33.1,31.5,29.95,NNE,19,7.0,10.0,94,0.00,,,0.00,60,HR-IXPWINDi_r2_v1.2.,2013-01-16 16:31:00,
2013-01-16 11:36:00,33.1,31.5,29.94,NNE,24,8.0,10.0,94,0.00,,,0.00,58,HR-IXPWINDi_r2_v1.2.,2013-01-16 16:36:00,
2013-01-16 11:41:00,33.2,31.6,29.93,North,5,7.0,10.0,94,0.00,,,0.00,58,HR-IXPWINDi_r2_v1.2.,2013-01-16 16:41:00,
2013-01-16 11:46:00,33.3,31.7,29.94,NNE,14,8.0,10.0,94,0.00,,,0.00,51,HR-IXPWINDi_r2_v1.2.,2013-01-16 16:46:00,
2013-01-16 11:52:00,33.3,31.7,29.93,NNE,26,5.0,10.0,94,0.00,,,0.00,53,HR-IXPWINDi_r2_v1.2.,2013-01-16 16:52:00,
2013-01-16 11:57:00,33.3,32.0,29.93,North,355,6.0,11.0,95,0.00,,,0.00,60,HR-IXPWINDi_r2_v1.2.,2013-01-16 16:57:00,
2013-01-16 12:02:00,33.4,31.8,29.92,North,5,7.0,11.0,94,0.00,,,0.00,58,HR-IXPWINDi_r2_v1.2.,2013-01-16 17:02:00,
2013-01-16 12:07:00,33.4,31.8,29.92,NNE,15,10.0,11.0,94,0.00,,,0.00,56,HR-IXPWINDi_r2_v1.2.,2013-01-16 17:07:00,
2013-01-16 12:12:00,33.5,32.2,29.92,North,5,7.0,12.0,95,0.00,,,0.00,49,HR-IXPWINDi_r2_v1.2.,2013-01-16 17:12:00,
2013-01-16 12:17:00,33.5,32.2,29.92,NNE,15,7.0,12.0,95,0.00,,,0.00,54,HR-IXPWINDi_r2_v1.2.,2013-01-16 17:17:00,
2013-01-16 12:23:00,33.6,32.3,29.92,NNW,346,7.0,11.0,95,0.00,,,0.00,54,HR-IXPWINDi_r2_v1.2.,2013-01-16 17:23:00,
2013-01-16 12:28:00,33.6,32.3,29.92,North,5,7.0,11.0,95,0.00,,,0.00,53,HR-IXPWINDi_r2_v1.2.,2013-01-16 17:28:00,
2013-01-16 12:33:00,33.5,32.2,29.92,North,5,6.0,13.0,95,0.00,,,0.00,51,HR-IXPWINDi_r2_v1.2.,2013-01-16 17:33:00,
2013-01-16 12:38:00,33.4,32.1,29.91,NNE,17,11.0,15.0,95,0.00,,,0.00,56,HR-IXPWINDi_r2_v1.2.,2013-01-16 17:38:00,
2013-01-16 12:43:00,33.4,32.1,29.90,NNE,15,10.0,15.0,95,0.00,,,0.00,60,HR-IXPWINDi_r2_v1.2.,2013-01-16 17:43:00,
2013-01-16 12:48:00,33.4,32.1,29.90,NNE,12,8.0,14.0,95,0.00,,,0.00,69,HR-IXPWINDi_r2_v1.2.,2013-01-16 17:48:00,
2013-01-16 12:54:00,33.5,32.2,29.90,North,11,10.0,14.0,95,0.00,,,0.00,65,HR-IXPWINDi_r2_v1.2.,2013-01-16 17:54:00,
2013-01-16 12:59:00,33.5,32.2,29.90,NE,40,9.0,12.0,95,0.00,,,0.00,60,HR-IXPWINDi_r2_v1.2.,2013-01-16 17:59:00,
2013-01-16 13:04:00,33.5,32.2,29.90,NNE,22,4.0,12.0,95,0.00,,,0.00,56,HR-IXPWINDi_r2_v1.2.,2013-01-16 18:04:00,
2013-01-16 13:09:00,33.6,32.3,29.90,NNE,22,8.0,14.0,95,0.00,,,0.00,47,HR-IXPWINDi_r2_v1.2.,2013-01-16 18:09:00,
2013-01-16 13:15:00,33.6,32.3,29.90,NNE,15,8.0,14.0,95,0.00,,,0.00,42,HR-IXPWINDi_r2_v1.2.,2013-01-16 18:15:00,
2013-01-16 13:20:00,33.6,32.3,29.90,NNE,23,8.0,14.0,95,0.00,,,0.00,47,HR-IXPWINDi_r2_v1.2.,2013-01-16 18:20:00,
2013-01-16 13:25:00,33.6,32.3,29.90,NNE,22,8.0,14.0,95,0.00,,,0.00,65,HR-IXPWINDi_r2_v1.2.,2013-01-16 18:25:00,
2013-01-16 13:30:00,33.6,32.3,29.89,North,360,9.0,12.0,95,0.00,,,0.00,60,HR-IXPWINDi_r2_v1.2.,2013-01-16 18:30:00,
2013-01-16 13:35:00,33.6,32.3,29.89,NNE,30,7.0,12.0,95,0.00,,,0.00,53,HR-IXPWINDi_r2_v1.2.,2013-01-16 18:35:00,
2013-01-16 13:40:00,33.6,32.3,29.88,NNE,20,7.0,13.0,95,0.00,,,0.00,51,HR-IXPWINDi_r2_v1.2.,2013-01-16 18:40:00,
2013-01-16 13:45:00,33.6,32.3,29.88,NNE,17,9.0,13.0,95,0.00,,,0.00,49,HR-IXPWINDi_r2_v1.2.,2013-01-16 18:45:00,
2013-01-16 13:51:00,33.6,32.3,29.88,NNE,30,6.0,14.0,95,0.00,,,0.00,49,HR-IXPWINDi_r2_v1.2.,2013-01-16 18:51:00,
2013-01-16 13:56:00,33.5,32.2,29.87,NNE,16,12.0,14.0,95,0.00,,,0.00,42,HR-IXPWINDi_r2_v1.2.,2013-01-16 18:56:00,
2013-01-16 14:01:00,33.5,32.2,29.86,NNE,14,5.0,13.0,95,0.00,,,0.00,44,HR-IXPWINDi_r2_v1.2.,2013-01-16 19:01:00,
2013-01-16 14:06:00,33.4,32.1,29.86,NNE,27,6.0,12.0,95,0.00,,,0.00,33,HR-IXPWINDi_r2_v1.2.,2013-01-16 19:06:00,
2013-01-16 14:12:00,33.4,32.1,29.86,North,350,8.0,15.0,95,0.00,,,0.01,28,HR-IXPWINDi_r2_v1.2.,2013-01-16 19:12:00,
2013-01-16 14:17:00,33.4,32.1,29.83,NNE,32,11.0,15.0,95,0.00,,,0.01,39,HR-IXPWINDi_r2_v1.2.,2013-01-16 19:17:00,
2013-01-16 14:22:00,33.4,32.1,29.82,NNE,22,13.0,15.0,95,0.00,,,0.01,39,HR-IXPWINDi_r2_v1.2.,2013-01-16 19:22:00,
2013-01-16 14:27:00,33.5,32.2,29.82,NNE,13,10.0,15.0,95,0.00,,,0.01,35,HR-IXPWINDi_r2_v1.2.,2013-01-16 19:27:00,
2013-01-16 14:32:00,33.5,32.2,29.82,NNE,26,10.0,15.0,95,0.00,,,0.01,35,HR-IXPWINDi_r2_v1.2.,2013-01-16 19:32:00,
2013-01-16 14:37:00,33.6,32.3,29.82,NNE,24,9.0,15.0,95,0.00,,,0.01,37,HR-IXPWINDi_r2_v1.2.,2013-01-16 19:37:00,
2013-01-16 14:42:00,33.7,32.4,29.81,NE,38,7.0,11.0,95,0.00,,,0.01,40,HR-IXPWINDi_r2_v1.2.,2013-01-16 19:42:00,
2013-01-16 14:47:00,33.7,32.4,29.82,NE,34,9.0,12.0,95,0.00,,,0.01,30,HR-IXPWINDi_r2_v1.2.,2013-01-16 19:47:00,
2013-01-16 14:53:00,33.7,32.4,29.82,NNE,26,10.0,13.0,95,0.00,,,0.01,23,HR-IXPWINDi_r2_v1.2.,2013-01-16 19:53:00,
2013-01-16 14:58:00,33.7,32.4,29.83,NNW,346,7.0,14.0,95,0.00,,,0.01,21,HR-IXPWINDi_r2_v1.2.,2013-01-16 19:58:00,
2013-01-16 15:03:00,33.7,32.4,29.83,NNE,22,5.0,14.0,95,0.00,,,0.01,21,HR-IXPWINDi_r2_v1.2.,2013-01-16 20:03:00,
2013-01-16 15:08:00,33.6,32.3,29.82,North,5,13.0,14.0,95,0.00,,,0.01,23,HR-IXPWINDi_r2_v1.2.,2013-01-16 20:08:00,
2013-01-16 15:13:00,33.5,32.2,29.83,NNE,17,11.0,13.0,95,0.00,,,0.02,18,HR-IXPWINDi_r2_v1.2.,2013-01-16 20:13:00,
2013-01-16 15:18:00,33.5,32.2,29.82,NNE,20,11.0,14.0,95,0.00,,,0.02,16,HR-IXPWINDi_r2_v1.2.,2013-01-16 20:18:00,
2013-01-16 15:23:00,33.4,32.1,29.82,NNE,13,7.0,14.0,95,0.00,,,0.02,14,HR-IXPWINDi_r2_v1.2.,2013-01-16 20:23:00,
2013-01-16 15:29:00,33.4,32.1,29.84,North,5,7.0,15.0,95,0.00,,,0.03,11,HR-IXPWINDi_r2_v1.2.,2013-01-16 20:29:00,
2013-01-16 15:34:00,33.4,32.1,29.85,NNE,25,10.0,15.0,95,0.00,,,0.03,9,HR-IXPWINDi_r2_v1.2.,2013-01-16 20:34:00,
2013-01-16 15:39:00,33.3,32.0,29.85,North,11,14.0,16.0,95,0.00,,,0.03,9,HR-IXPWINDi_r2_v1.2.,2013-01-16 20:39:00,
2013-01-16 15:45:00,33.3,32.0,29.84,NNE,13,7.0,16.0,95,0.00,,,0.03,9,HR-IXPWINDi_r2_v1.2.,2013-01-16 20:45:00,
2013-01-16 15:50:00,33.3,32.0,29.83,North,9,9.0,16.0,95,0.00,,,0.03,11,HR-IXPWINDi_r2_v1.2.,2013-01-16 20:50:00,
2013-01-16 15:55:00,33.2,31.9,29.83,NNE,25,7.0,12.0,95,0.00,,,0.04,11,HR-IXPWINDi_r2_v1.2.,2013-01-16 20:55:00,
2013-01-16 16:00:00,33.2,31.9,29.83,North,5,11.0,13.0,95,0.00,,,0.04,9,HR-IXPWINDi_r2_v1.2.,2013-01-16 21:00:00,
2013-01-16 16:06:00,33.3,32.0,29.84,NNW,343,6.0,13.0,95,0.00,,,0.04,7,HR-IXPWINDi_r2_v1.2.,2013-01-16 21:06:00,
2013-01-16 16:11:00,33.3,32.0,29.83,NNE,12,10.0,12.0,95,0.00,,,0.04,7,HR-IXPWINDi_r2_v1.2.,2013-01-16 21:11:00,
2013-01-16 16:16:00,33.2,31.9,29.83,NNE,14,8.0,14.0,95,0.00,,,0.05,5,HR-IXPWINDi_r2_v1.2.,2013-01-16 21:16:00,
2013-01-16 16:21:00,33.2,31.9,29.83,NNE,14,7.0,14.0,95,0.00,,,0.05,0,HR-IXPWINDi_r2_v1.2.,2013-01-16 21:21:00,
2013-01-16 16:26:00,33.2,31.9,29.84,North,5,7.0,14.0,95,0.00,,,0.05,0,HR-IXPWINDi_r2_v1.2.,2013-01-16 21:26:00,
2013-01-16 16:31:00,33.2,31.9,29.84,NNW,327,6.0,14.0,95,0.00,,,0.05,0,HR-IXPWINDi_r2_v1.2.,2013-01-16 21:31:00,
2013-01-16 16:36:00,33.2,31.9,29.84,NNW,344,6.0,13.0,95,0.00,,,0.05,0,HR-IXPWINDi_r2_v1.2.,2013-01-16 21:36:00,
2013-01-16 16:42:00,33.1,31.8,29.83,NNE,12,7.0,13.0,95,0.00,,,0.05,0,HR-IXPWINDi_r2_v1.2.,2013-01-16 21:42:00,
2013-01-16 16:47:00,33.1,31.8,29.84,NNW,345,6.0,12.0,95,0.00,,,0.06,0,HR-IXPWINDi_r2_v1.2.,2013-01-16 21:47:00,
2013-01-16 16:52:00,33.1,31.8,29.84,NE,37,4.0,12.0,95,0.00,,,0.06,0,HR-IXPWINDi_r2_v1.2.,2013-01-16 21:52:00,
2013-01-16 16:57:00,33.1,31.8,29.83,NNE,17,7.0,10.0,95,0.00,,,0.06,0,HR-IXPWINDi_r2_v1.2.,2013-01-16 21:57:00,
2013-01-16 17:02:00,33.1,31.8,29.83,NNW,341,8.0,9.0,95,0.00,,,0.06,0,HR-IXPWINDi_r2_v1.2.,2013-01-16 22:02:00,
2013-01-16 17:07:00,33.1,31.8,29.84,NNW,327,7.0,11.0,95,0.00,,,0.07,0,HR-IXPWINDi_r2_v1.2.,2013-01-16 22:07:00,
2013-01-16 17:12:00,33.1,31.8,29.84,North,355,4.0,11.0,95,0.00,,,0.07,0,HR-IXPWINDi_r2_v1.2.,2013-01-16 22:12:00,
2013-01-16 17:18:00,33.1,31.8,29.85,North,360,7.0,10.0,95,0.00,,,0.07,0,HR-IXPWINDi_r2_v1.2.,2013-01-16 22:18:00,
2013-01-16 17:23:00,33.2,31.9,29.85,NW,309,1.0,10.0,95,0.00,,,0.07,0,HR-IXPWINDi_r2_v1.2.,2013-01-16 22:23:00,
2013-01-16 17:28:00,33.2,31.9,29.85,NNW,330,5.0,10.0,95,0.00,,,0.07,0,HR-IXPWINDi_r2_v1.2.,2013-01-16 22:28:00,
2013-01-16 17:33:00,33.2,31.9,29.85,NNE,13,1.0,10.0,95,0.00,,,0.07,0,HR-IXPWINDi_r2_v1.2.,2013-01-16 22:33:00,
2013-01-16 17:39:00,33.2,31.9,29.85,NW,326,4.0,9.0,95,0.00,,,0.07,0,HR-IXPWINDi_r2_v1.2.,2013-01-16 22:39:00,
2013-01-16 17:44:00,33.1,31.8,29.84,WNW,302,5.0,9.0,95,0.00,,,0.08,0,HR-IXPWINDi_r2_v1.2.,2013-01-16 22:44:00,
2013-01-16 17:49:00,33.2,31.9,29.85,WNW,303,3.0,9.0,95,0.00,,,0.08,0,HR-IXPWINDi_r2_v1.2.,2013-01-16 22:49:00,
2013-01-16 17:55:00,33.2,31.9,29.84,NW,310,2.0,8.0,95,0.00,,,0.08,0,HR-IXPWINDi_r2_v1.2.,2013-01-16 22:55:00,
2013-01-16 18:00:00,33.2,31.9,29.85,WNW,296,1.0,6.0,95,0.00,,,0.08,0,HR-IXPWINDi_r2_v1.2.,2013-01-16 23:00:00,
2013-01-16 18:05:00,33.2,31.9,29.84,NW,318,3.0,4.0,95,0.00,,,0.08,0,HR-IXPWINDi_r2_v1.2.,2013-01-16 23:05:00,
2013-01-16 18:10:00,33.2,31.9,29.84,NW,307,2.0,5.0,95,0.00,,,0.08,0,HR-IXPWINDi_r2_v1.2.,2013-01-16 23:10:00,
2013-01-16 18:15:00,33.1,31.8,29.84,NW,313,2.0,5.0,95,0.00,,,0.08,0,HR-IXPWINDi_r2_v1.2.,2013-01-16 23:15:00,
2013-01-16 18:20:00,33.1,31.8,29.84,NW,321,3.0,5.0,95,0.00,,,0.09,0,HR-IXPWINDi_r2_v1.2.,2013-01-16 23:20:00,
2013-01-16 18:25:00,33.1,31.8,29.84,NW,304,5.0,5.0,95,0.00,,,0.09,0,HR-IXPWINDi_r2_v1.2.,2013-01-16 23:25:00,
2013-01-16 18:31:00,33.0,31.7,29.84,NNW,327,3.0,6.0,95,0.00,,,0.09,0,HR-IXPWINDi_r2_v1.2.,2013-01-16 23:31:00,
2013-01-16 18:36:00,33.1,31.8,29.85,WNW,296,0.0,6.0,95,0.00,,,0.09,0,HR-IXPWINDi_r2_v1.2.,2013-01-16 23:36:00,
2013-01-16 18:41:00,33.1,31.8,29.86,West,260,4.0,8.0,95,0.00,,,0.09,0,HR-IXPWINDi_r2_v1.2.,2013-01-16 23:41:00,
2013-01-16 18:46:00,33.1,31.8,29.85,WNW,300,6.0,8.0,95,0.00,,,0.09,0,HR-IXPWINDi_r2_v1.2.,2013-01-16 23:46:00,
2013-01-16 18:51:00,33.1,31.8,29.84,NW,319,1.0,8.0,95,0.00,,,0.09,0,HR-IXPWINDi_r2_v1.2.,2013-01-16 23:51:00,
2013-01-16 18:56:00,33.1,31.8,29.84,NW,320,1.0,8.0,95,0.00,,,0.09,0,HR-IXPWINDi_r2_v1.2.,2013-01-16 23:56:00,
2013-01-16 19:02:00,33.1,31.8,29.84,NW,314,0.0,7.0,95,0.00,,,0.09,0,HR-IXPWINDi_r2_v1.2.,2013-01-17 00:02:00,
2013-01-16 19:07:00,33.1,31.8,29.84,NW,312,0.0,7.0,95,0.00,,,0.09,0,HR-IXPWINDi_r2_v1.2.,2013-01-17 00:07:00,
2013-01-16 19:12:00,33.0,31.7,29.83,NW,306,0.0,5.0,95,0.00,,,0.09,0,HR-IXPWINDi_r2_v1.2.,2013-01-17 00:12:00,
2013-01-16 19:17:00,33.1,31.8,29.83,NW,311,2.0,4.0,95,0.00,,,0.09,0,HR-IXPWINDi_r2_v1.2.,2013-01-17 00:17:00,
2013-01-16 19:23:00,33.1,31.8,29.83,WNW,300,3.0,5.0,95,0.00,,,0.09,0,HR-IXPWINDi_r2_v1.2.,2013-01-17 00:23:00,
2013-01-16 19:28:00,33.2,31.9,29.83,WNW,290,3.0,5.0,95,0.00,,,0.10,0,HR-IXPWINDi_r2_v1.2.,2013-01-17 00:28:00,
2013-01-16 19:33:00,33.1,31.8,29.82,NW,308,5.0,6.0,95,0.00,,,0.10,0,HR-IXPWINDi_r2_v1.2.,2013-01-17 00:33:00,
2013-01-16 19:38:00,33.1,31.8,29.83,West,277,0.0,6.0,95,0.00,,,0.10,0,HR-IXPWINDi_r2_v1.2.,2013-01-17 00:38:00,
2013-01-16 19:43:00,33.1,31.8,29.83,West,259,0.0,5.0,95,0.00,,,0.10,0,HR-IXPWINDi_r2_v1.2.,2013-01-17 00:43:00,
2013-01-16 19:49:00,33.1,31.8,29.83,WNW,300,1.0,5.0,95,0.00,,,0.10,0,HR-IXPWINDi_r2_v1.2.,2013-01-17 00:49:00,
2013-01-16 19:54:00,33.1,31.8,29.83,WNW,301,2.0,5.0,95,0.00,,,0.10,0,HR-IXPWINDi_r2_v1.2.,2013-01-17 00:54:00,
2013-01-16 19:59:00,33.1,31.8,29.83,WNW,288,3.0,4.0,95,0.00,,,0.10,0,HR-IXPWINDi_r2_v1.2.,2013-01-17 00:59:00,
2013-01-16 20:04:00,33.1,31.8,29.83,WNW,286,4.0,6.0,95,0.00,,,0.10,0,HR-IXPWINDi_r2_v1.2.,2013-01-17 01:04:00,
2013-01-16 20:10:00,33.1,31.8,29.84,SW,232,2.0,8.0,95,0.00,,,0.10,0,HR-IXPWINDi_r2_v1.2.,2013-01-17 01:10:00,
2013-01-16 20:15:00,33.2,31.9,29.83,WNW,293,2.0,8.0,95,0.00,,,0.10,0,HR-IXPWINDi_r2_v1.2.,2013-01-17 01:15:00,
2013-01-16 20:20:00,33.1,31.8,29.83,WSW,257,4.0,6.0,95,0.00,,,0.10,0,HR-IXPWINDi_r2_v1.2.,2013-01-17 01:20:00,
2013-01-16 20:25:00,33.1,31.8,29.84,West,265,3.0,6.0,95,0.00,,,0.10,0,HR-IXPWINDi_r2_v1.2.,2013-01-17 01:25:00,
2013-01-16 20:31:00,33.2,31.9,29.84,WNW,289,4.0,6.0,95,0.00,,,0.10,0,HR-IXPWINDi_r2_v1.2.,2013-01-17 01:31:00,
2013-01-16 20:36:00,33.3,32.0,29.84,WNW,293,3.0,6.0,95,0.00,,,0.10,0,HR-IXPWINDi_r2_v1.2.,2013-01-17 01:36:00,
2013-01-16 20:41:00,33.4,32.1,29.85,WNW,282,5.0,6.0,95,0.00,,,0.11,0,HR-IXPWINDi_r2_v1.2.,2013-01-17 01:41:00,
2013-01-16 20:46:00,33.4,32.1,29.85,West,279,4.0,7.0,95,0.00,,,0.11,0,HR-IXPWINDi_r2_v1.2.,2013-01-17 01:46:00,
2013-01-16 20:51:00,33.4,32.1,29.84,West,265,3.0,7.0,95,0.00,,,0.11,0,HR-IXPWINDi_r2_v1.2.,2013-01-17 01:51:00,
2013-01-16 20:56:00,33.5,32.2,29.84,West,261,4.0,7.0,95,0.00,,,0.11,0,HR-IXPWINDi_r2_v1.2.,2013-01-17 01:56:00,
2013-01-16 21:02:00,33.5,32.2,29.84,SW,236,8.0,9.0,95,0.00,,,0.11,0,HR-IXPWINDi_r2_v1.2.,2013-01-17 02:02:00,
2013-01-16 21:07:00,33.7,32.4,29.84,WSW,246,4.0,9.0,95,0.00,,,0.11,0,HR-IXPWINDi_r2_v1.2.,2013-01-17 02:07:00,
2013-01-16 21:12:00,33.8,32.5,29.83,WSW,250,4.0,9.0,95,0.00,,,0.11,0,HR-IXPWINDi_r2_v1.2.,2013-01-17 02:12:00,
2013-01-16 21:17:00,33.8,32.5,29.84,WSW,240,3.0,8.0,95,0.00,,,0.11,0,HR-IXPWINDi_r2_v1.2.,2013-01-17 02:17:00,
2013-01-16 21:22:00,34.0,32.7,29.84,WSW,240,5.0,8.0,95,0.00,,,0.11,0,HR-IXPWINDi_r2_v1.2.,2013-01-17 02:22:00,
2013-01-16 21:28:00,34.1,32.8,29.84,SW,231,6.0,8.0,95,0.00,,,0.11,0,HR-IXPWINDi_r2_v1.2.,2013-01-17 02:28:00,
2013-01-16 21:33:00,34.1,32.8,29.84,West,273,4.0,8.0,95,0.00,,,0.11,0,HR-IXPWINDi_r2_v1.2.,2013-01-17 02:33:00,
2013-01-16 21:38:00,33.9,32.3,29.84,WSW,246,2.0,7.0,94,0.00,,,0.11,0,HR-IXPWINDi_r2_v1.2.,2013-01-17 02:38:00,
2013-01-16 21:43:00,33.8,32.2,29.84,WNW,295,4.0,7.0,94,0.00,,,0.11,0,HR-IXPWINDi_r2_v1.2.,2013-01-17 02:43:00,
2013-01-16 21:49:00,33.8,32.2,29.83,WSW,251,2.0,6.0,94,0.00,,,0.11,0,HR-IXPWINDi_r2_v1.2.,2013-01-17 02:49:00,
2013-01-16 21:54:00,33.8,32.2,29.83,West,265,4.0,6.0,94,0.00,,,0.12,0,HR-IXPWINDi_r2_v1.2.,2013-01-17 02:54:00,
2013-01-16 21:59:00,33.7,32.1,29.83,West,267,4.0,6.0,94,0.00,,,0.12,0,HR-IXPWINDi_r2_v1.2.,2013-01-17 02:59:00,
2013-01-16 22:05:00,33.8,32.2,29.84,SW,224,4.0,6.0,94,0.00,,,0.12,0,HR-IXPWINDi_r2_v1.2.,2013-01-17 03:05:00,
2013-01-16 22:10:00,33.8,32.2,29.83,WSW,250,2.0,6.0,94,0.00,,,0.12,0,HR-IXPWINDi_r2_v1.2.,2013-01-17 03:10:00,
2013-01-16 22:16:00,33.8,32.2,29.84,SW,229,3.0,6.0,94,0.00,,,0.12,0,HR-IXPWINDi_r2_v1.2.,2013-01-17 03:16:00,
2013-01-16 22:21:00,33.8,32.2,29.84,West,272,1.0,7.0,94,0.00,,,0.12,0,HR-IXPWINDi_r2_v1.2.,2013-01-17 03:21:00,
2013-01-16 22:26:00,33.8,32.2,29.84,West,277,4.0,7.0,94,0.00,,,0.12,0,HR-IXPWINDi_r2_v1.2.,2013-01-17 03:26:00,
2013-01-16 22:31:00,33.8,32.2,29.84,WSW,254,5.0,6.0,94,0.00,,,0.12,0,HR-IXPWINDi_r2_v1.2.,2013-01-17 03:31:00,
2013-01-16 22:36:00,34.0,32.4,29.84,WSW,248,4.0,7.0,94,0.00,,,0.12,0,HR-IXPWINDi_r2_v1.2.,2013-01-17 03:36:00,
2013-01-16 22:42:00,34.0,32.4,29.83,WSW,237,5.0,7.0,94,0.00,,,0.12,0,HR-IXPWINDi_r2_v1.2.,2013-01-17 03:42:00,
2013-01-16 22:47:00,34.0,32.4,29.84,SW,217,7.0,8.0,94,0.00,,,0.13,0,HR-IXPWINDi_r2_v1.2.,2013-01-17 03:47:00,
2013-01-16 22:52:00,34.1,32.5,29.84,SW,221,7.0,10.0,94,0.00,,,0.13,0,HR-IXPWINDi_r2_v1.2.,2013-01-17 03:52:00,
2013-01-16 22:57:00,34.1,32.5,29.83,SSW,211,8.0,11.0,94,0.00,,,0.13,0,HR-IXPWINDi_r2_v1.2.,2013-01-17 03:57:00,
2013-01-16 23:02:00,34.2,32.6,29.83,SSW,210,7.0,11.0,94,0.00,,,0.13,0,HR-IXPWINDi_r2_v1.2.,2013-01-17 04:02:00,
2013-01-16 23:08:00,34.3,32.7,29.83,SW,217,8.0,11.0,94,0.00,,,0.13,0,HR-IXPWINDi_r2_v1.2.,2013-01-17 04:08:00,
2013-01-16 23:13:00,34.6,33.0,29.83,SSW,213,9.0,11.0,94,0.00,,,0.13,0,HR-IXPWINDi_r2_v1.2.,2013-01-17 04:13:00,
2013-01-16 23:18:00,34.8,33.2,29.83,SSW,207,10.0,12.0,94,0.00,,,0.13,0,HR-IXPWINDi_r2_v1.2.,2013-01-17 04:18:00,
2013-01-16 23:23:00,35.1,33.5,29.83,SW,223,13.0,14.0,94,0.00,,,0.13,0,HR-IXPWINDi_r2_v1.2.,2013-01-17 04:23:00,
2013-01-16 23:28:00,35.2,33.3,29.83,SW,216,11.0,14.0,93,0.00,,,0.13,0,HR-IXPWINDi_r2_v1.2.,2013-01-17 04:28:00,
2013-01-16 23:34:00,35.3,33.4,29.83,SW,222,12.0,14.0,93,0.00,,,0.13,0,HR-IXPWINDi_r2_v1.2.,2013-01-17 04:34:00,
2013-01-16 23:39:00,35.3,33.4,29.83,SSW,212,11.0,14.0,93,0.00,,,0.13,0,HR-IXPWINDi_r2_v1.2.,2013-01-17 04:39:00,
2013-01-16 23:44:00,35.4,33.5,29.83,SSW,213,11.0,14.0,93,0.00,,,0.13,0,HR-IXPWINDi_r2_v1.2.,2013-01-17 04:44:00,
2013-01-16 23:49:00,35.5,33.6,29.83,SW,215,12.0,15.0,93,0.00,,,0.13,0,HR-IXPWINDi_r2_v1.2.,2013-01-17 04:49:00,
2013-01-16 23:54:00,35.6,33.7,29.83,SW,223,13.0,15.0,93,0.00,,,0.13,0,HR-IXPWINDi_r2_v1.2.,2013-01-17 04:54:00,